Omaha, NE

9:50 PM CST on December 09, 2016 (GMT -0600)
Eppley Airfield

Weather History for KOMA - January, 2014

Change the Weather History Date:

Sunday, January 19, 2014

  Actual Average Record
Temperature  
Mean Temperature 41 °F 23 °F  
Max Temperature 65 °F 33 °F 65 °F (2014)
Min Temperature 17 °F 13 °F -26 °F (1892)
Degree Days  
Heating Degree Days 24 42  
Month to date heating degree days 819 798  
Since 1 July heating degree days 3363 3277  
Cooling Degree Days 0 0  
Month to date cooling degree days 0 0  
Year to date cooling degree days 0 0  
Moisture  
Dew Point 20 °F    
Average Humidity 50    
Maximum Humidity 84    
Minimum Humidity 16    
Precipitation  
Precipitation 0.00 in 0.02 in 0.53 in (1958)
Month to date precipitation 0.11 0.42  
Year to date precipitation 0.11 0.42  
Snow  
Snow 0.00 in 0.20 in - ()
Month to date snowfall 1.4 3.7  
Since 1 July snowfall 4.9 12.7  
Snow Depth 0.00 in    
Sea Level Pressure  
Sea Level Pressure 29.83 in    
Wind  
Wind Speed 10 mph (WSW)    
Max Wind Speed 22 mph    
Max Gust Speed 27 mph    
Visibility 10 miles    
Events      
T = Trace of Precipitation, MM = Missing Value Source: NWS Daily Summary

Daily Weather History Graph

Daily Weather History Graph

Search for Another Location

Airport or City:

Trip Planner

Search our weather history database for the weather conditions in past years. The results will help you decide how hot, cold, wet, or windy it might be!

Date:

Astronomy

Jan. 19, 2014 Rise Set
Actual Time 7:45 AM CST 5:24 PM CST
Civil Twilight 7:14 AM CST 5:54 PM CST
Nautical Twilight 6:41 AM CST 6:28 PM CST
Astronomical Twilight 6:08 AM CST 7:00 PM CST
Moon 9:05 PM CST (1/19) 9:13 AM CST (1/19)
Length of Visible Light 10h 39m
Length of Day
9h 38m
Waning Gibbous, 89% of the Moon is Illuminated
Jan 19
Waning Gibbous
Jan 23
Last Quarter
Jan 30
New
Feb 6
First Quarter
Feb 14
Full

Hourly Weather History & Observations

Time (CST) Temp. Windchill Dew Point Humidity Pressure Visibility Wind Dir Wind Speed Gust Speed Precip Events Conditions
12:52 AM 18.0 °F 7.7 °F 12.9 °F 81% 30.04 in 10.0 mi SSE 8.1 mph - N/A   Scattered Clouds
1:52 AM 19.9 °F 9.3 °F 15.1 °F 81% 30.03 in 10.0 mi South 9.2 mph - N/A   Partly Cloudy
2:52 AM 27.0 °F 18.0 °F 19.0 °F 72% 29.97 in 10.0 mi SW 9.2 mph - N/A   Clear
3:52 AM 27.0 °F 18.7 °F 19.9 °F 75% 29.95 in 10.0 mi SSW 8.1 mph - N/A   Clear
4:52 AM 27.0 °F 19.5 °F 19.9 °F 75% 29.93 in 10.0 mi South 6.9 mph - N/A   Clear
5:52 AM 30.9 °F 25.2 °F 19.9 °F 64% 29.89 in 10.0 mi SSW 5.8 mph - N/A   Clear
6:52 AM 28.9 °F 21.9 °F 19.0 °F 67% 29.88 in 10.0 mi SW 6.9 mph - N/A   Clear
7:52 AM 32.0 °F 25.6 °F 19.0 °F 59% 29.86 in 10.0 mi SW 6.9 mph - N/A   Clear
8:52 AM 35.1 °F 29.3 °F 19.0 °F 52% 29.84 in 10.0 mi SW 6.9 mph - N/A   Partly Cloudy
9:52 AM 39.0 °F 34.8 °F 19.9 °F 46% 29.83 in 10.0 mi SW 5.8 mph - N/A   Partly Cloudy
10:52 AM 42.1 °F 37.1 °F 19.9 °F 41% 29.82 in 10.0 mi WSW 8.1 mph - N/A   Partly Cloudy
11:52 AM 48.0 °F - 21.0 °F 34% 29.78 in 10.0 mi Variable 4.6 mph - N/A   Partly Cloudy
12:52 PM 52.0 °F - 21.9 °F 31% 29.74 in 10.0 mi SSW 8.1 mph - N/A   Partly Cloudy
1:52 PM 60.1 °F - 23.0 °F 24% 29.70 in 10.0 mi SSW 8.1 mph - N/A   Scattered Clouds
2:52 PM 64.9 °F - 19.9 °F 18% 29.66 in 10.0 mi West 18.4 mph 24.2 mph N/A   Scattered Clouds
3:52 PM 64.9 °F - 21.0 °F 19% 29.67 in 10.0 mi West 18.4 mph 26.5 mph N/A   Mostly Cloudy
4:52 PM 64.0 °F - 18.0 °F 17% 29.69 in 10.0 mi WNW 16.1 mph - N/A   Mostly Cloudy
5:52 PM 57.9 °F - 16.0 °F 19% 29.73 in 10.0 mi NW 15.0 mph - N/A   Mostly Cloudy
6:52 PM 54.0 °F - 21.0 °F 28% 29.78 in 10.0 mi NNW 16.1 mph - N/A   Mostly Cloudy
7:52 PM 48.9 °F - 21.9 °F 35% 29.82 in 10.0 mi NW 13.8 mph - N/A   Scattered Clouds
8:52 PM 46.0 °F 41.4 °F 23.0 °F 40% 29.83 in 10.0 mi WNW 9.2 mph - N/A   Scattered Clouds
9:52 PM 44.1 °F 39.5 °F 23.0 °F 43% 29.86 in 10.0 mi WNW 8.1 mph - N/A   Scattered Clouds
10:52 PM 37.9 °F 32.1 °F 23.0 °F 55% 29.88 in 10.0 mi NW 8.1 mph - N/A   Partly Cloudy
11:52 PM 42.1 °F 36.6 °F 24.1 °F 49% 29.87 in 10.0 mi WNW 9.2 mph - N/A   Partly Cloudy